Weather History for KBIX - December, 2013

Change the Weather History Date:

Thursday, December 5, 2013

  Actual Average Record
Temperature  
Mean Temperature 68 °F -  
Max Temperature 72 °F 64 °F 78 °F (1977)
Min Temperature 65 °F 44 °F 30 °F (1978)
Cooling Degree Days 4    
Growing Degree Days 18 (Base 50)    
Moisture  
Dew Point 69 °F    
Average Humidity 100    
Maximum Humidity 100    
Minimum Humidity 100    
Precipitation  
Precipitation 0.00 in - - ()
Sea Level Pressure  
Sea Level Pressure 30.00 in    
Wind  
Wind Speed 10 mph (South)    
Max Wind Speed 15 mph    
Max Gust Speed 21 mph    
Visibility 2 miles    
Events Fog    
Averages and records for this station are not official NWS values.
T = Trace of Precipitation, MM = Missing Value Source: NWS Daily Summary

Daily Weather History Graph

Daily Weather History Graph

Search for Another Location

Airport or City:

Trip Planner

Search our weather history database for the weather conditions in past years. The results will help you decide how hot, cold, wet, or windy it might be!

Date:

Astronomy

Dec. 05, 2013 Rise Set
Actual Time 6:38 AM CST 4:54 PM CST
Civil Twilight 6:11 AM CST 5:20 PM CST
Nautical Twilight 5:42 AM CST 5:50 PM CST
Astronomical Twilight 5:12 AM CST 6:19 PM CST
Moon 9:03 AM CST (12/5) 8:08 PM CST (12/5)
Length of Visible Light 11h 09m
Length of Day
10h 16m
Waxing Crescent, 11% of the Moon is Illuminated
Dec 5
Waxing Crescent
Dec 9
First Quarter
Dec 17
Full
Dec 25
Last Quarter
Jan 1
New

Hourly Weather History & Observations

Time (CST) Temp. Dew Point Humidity Pressure Visibility Wind Dir Wind Speed Gust Speed Precip Events Conditions
12:58 AM 65.5 °F 65.5 °F 100% 29.98 in 0.5 mi South 6.9 mph - N/A Fog Fog
1:38 AM 66.2 °F 66.2 °F 100% 29.96 in 0.2 mi South 9.2 mph - N/A Fog Fog
1:53 AM 66.2 °F 66.2 °F 100% 29.96 in 0.5 mi SSW 8.1 mph - N/A Fog Fog
1:58 AM 66.2 °F 66.2 °F 100% 29.97 in 0.5 mi SSW 9.2 mph - N/A Fog Fog
2:43 AM 66.2 °F 66.2 °F 100% 29.96 in 0.8 mi South 8.1 mph - N/A   Mist
2:58 AM 66.2 °F 66.2 °F 100% 29.97 in 0.8 mi South 10.4 mph - N/A   Mist
3:03 AM 66.2 °F 66.2 °F 100% 29.96 in 0.5 mi South 9.2 mph - N/A Fog Fog
3:23 AM 66.2 °F 66.2 °F 100% 29.96 in 0.2 mi South 11.5 mph - N/A Fog Fog
3:28 AM 66.2 °F 66.2 °F 100% 29.96 in 0.5 mi South 10.4 mph - N/A Fog Fog
3:58 AM 67.5 °F 67.5 °F 100% 29.97 in 0.5 mi South 10.4 mph - N/A Fog Fog
4:53 AM 68.0 °F 68.0 °F 100% 29.97 in 0.8 mi South 10.4 mph - N/A   Mist
4:58 AM 67.8 °F 67.8 °F 100% 29.98 in 0.8 mi South 9.2 mph - N/A   Mist
5:03 AM 68.0 °F 68.0 °F 100% 29.97 in 0.5 mi South 8.1 mph - N/A Fog Fog
5:18 AM 68.0 °F 68.0 °F 100% 29.97 in 0.2 mi South 6.9 mph - N/A Fog Fog
5:33 AM 68.0 °F 68.0 °F 100% 29.98 in 0.5 mi South 6.9 mph - N/A Fog Fog
5:58 AM 66.9 °F 66.9 °F 100% 30.00 in 0.5 mi SW 6.9 mph - N/A Fog Fog
6:38 AM 66.2 °F 66.2 °F 100% 30.00 in 0.2 mi South 4.6 mph - N/A Fog Fog
6:58 AM 65.1 °F 65.1 °F 100% 30.01 in 0.2 mi South 5.8 mph - N/A Fog Fog
7:58 AM 67.8 °F 67.8 °F 100% 30.03 in 0.2 mi South 6.9 mph - N/A Fog Fog
8:28 AM 68.0 °F 68.0 °F 100% 30.03 in 0.5 mi South 8.1 mph - N/A Fog Fog
8:38 AM 68.0 °F 68.0 °F 100% 30.03 in 0.5 mi South 8.1 mph - N/A Fog Fog
8:43 AM 68.0 °F 68.0 °F 100% 30.03 in 0.5 mi South 9.2 mph - N/A Fog Fog
8:48 AM 69.8 °F 69.8 °F 100% 30.03 in 0.8 mi South 10.4 mph - N/A   Mist
8:58 AM 69.6 °F 69.6 °F 100% 30.04 in 0.8 mi South 9.2 mph - N/A   Mist
9:15 AM 69.8 °F 69.8 °F 100% 30.04 in 0.8 mi SSW 9.2 mph - N/A   Overcast
9:35 AM 69.8 °F 69.8 °F 100% 30.04 in 0.5 mi SSW 10.4 mph - N/A   Overcast
9:53 AM 69.8 °F 69.8 °F 100% 30.04 in 0.8 mi SSW 9.2 mph - N/A   Mist
9:59 AM 69.8 °F 69.8 °F 100% 30.05 in 0.5 mi SSW 9.2 mph - N/A Fog Fog
10:09 AM 69.8 °F 69.8 °F 100% 30.04 in 0.8 mi SSW 9.2 mph - N/A   Mist
10:44 AM 69.8 °F 69.8 °F 100% 30.03 in 3.0 mi South 10.4 mph - N/A   Overcast
10:58 AM 70.0 °F 70.0 °F 100% 30.04 in 10.0 mi SSW 10.4 mph - N/A   Overcast
11:03 AM 69.8 °F 69.8 °F 100% 30.03 in 3.0 mi South 10.4 mph - N/A   Overcast
11:38 AM 69.8 °F 69.8 °F 100% 30.02 in 2.0 mi South 10.4 mph - N/A   Overcast
11:48 AM 69.8 °F 69.8 °F 100% 30.02 in 2.0 mi South 9.2 mph - N/A   Overcast
11:58 AM 70.2 °F 70.2 °F 100% 30.02 in 2.0 mi South 10.4 mph 17.3 mph N/A   Overcast
12:58 PM 72.1 °F 72.1 °F 100% 30.00 in 10.0 mi South 11.5 mph - N/A   Overcast
1:03 PM 71.6 °F 71.6 °F 100% 29.99 in 3.0 mi South 11.5 mph - N/A   Overcast
1:18 PM 71.6 °F 71.6 °F 100% 29.98 in 3.0 mi South 13.8 mph 20.7 mph N/A   Mostly Cloudy
1:58 PM 72.1 °F 72.1 °F 100% 29.98 in 10.0 mi South 12.7 mph - N/A   Scattered Clouds
2:23 PM 71.6 °F 71.6 °F 100% 29.97 in 10.0 mi South 13.8 mph - N/A   Mostly Cloudy
2:48 PM 71.6 °F 71.6 °F 100% 29.96 in 10.0 mi South 15.0 mph - N/A   Mostly Cloudy
2:58 PM 72.1 °F 72.1 °F 100% 29.97 in 10.0 mi South 11.5 mph - N/A   Mostly Cloudy
3:03 PM 71.6 °F 71.6 °F 100% 29.96 in 10.0 mi South 13.8 mph - N/A   Mostly Cloudy
3:08 PM 71.6 °F 71.6 °F 100% 29.96 in 10.0 mi South 12.7 mph - N/A   Mostly Cloudy
3:13 PM 71.6 °F 71.6 °F 100% 29.96 in 10.0 mi South 11.5 mph - N/A   Overcast
3:43 PM 69.8 °F 69.8 °F 100% 29.97 in 10.0 mi South 10.4 mph - N/A   Overcast
3:53 PM 69.8 °F 69.8 °F 100% 29.97 in 2.0 mi South 9.2 mph - N/A   Overcast
3:58 PM 70.0 °F 70.0 °F 100% 29.98 in 2.0 mi South 9.2 mph - N/A   Overcast
4:58 PM 68.7 °F 68.7 °F 100% 29.99 in 1.0 mi South 10.4 mph - N/A   Overcast
5:25 PM 69.8 °F 69.8 °F 100% 29.98 in 3.0 mi South 12.7 mph - N/A   Overcast
5:35 PM 69.8 °F 69.8 °F 100% 29.98 in 3.0 mi South 11.5 mph - N/A   Overcast
5:58 PM 70.3 °F 70.3 °F 100% 29.99 in 3.0 mi South 12.7 mph - N/A   Overcast
6:04 PM 69.8 °F 69.8 °F 100% 29.98 in 0.5 mi South 12.7 mph - N/A Fog Fog
6:58 PM 69.3 °F 69.3 °F 100% 29.99 in 2.0 mi South 12.7 mph - N/A   Overcast
7:30 PM 69.8 °F 69.8 °F 100% 29.98 in 1.0 mi South 12.7 mph - N/A   Overcast
7:55 PM 69.3 °F 69.3 °F 100% 30.00 in 1.0 mi South 10.4 mph 18.4 mph N/A   Overcast
8:58 PM 69.3 °F 69.3 °F 100% 30.01 in 0.8 mi South 12.7 mph - N/A   Mist
9:19 PM 68.0 °F 68.0 °F 100% 30.01 in 0.5 mi South 11.5 mph - N/A Fog Fog
9:58 PM 68.9 °F 68.9 °F 100% 30.03 in 0.8 mi South 11.5 mph - N/A   Mist
10:18 PM 69.8 °F 69.8 °F 100% 30.02 in 1.0 mi South 11.5 mph - N/A   Mist
10:28 PM 69.8 °F 69.8 °F 100% 30.02 in 0.8 mi South 10.4 mph - N/A   Mist
10:48 PM 69.8 °F 69.8 °F 100% 30.02 in 0.8 mi South 11.5 mph - N/A   Mist
10:53 PM 69.8 °F 69.8 °F 100% 30.02 in 0.8 mi South 10.4 mph - N/A   Mist
10:58 PM 68.9 °F 68.9 °F 100% 30.03 in 0.5 mi South 10.4 mph - N/A Fog Fog
11:58 PM 67.5 °F 67.5 °F 100% 30.01 in 0.5 mi South 10.4 mph - N/A Fog Fog